Pineville, LA

5:51 PM CST on February 19, 2017 (GMT -0600)
Alexandria Esler Regional

Weather History for KESF - June, 2013

Change the Weather History Date:

Sunday, June 2, 2013

  Actual Average Record
Temperature  
Mean Temperature 76 °F -  
Max Temperature 84 °F 86 °F 100 °F (2011)
Min Temperature 69 °F 63 °F 50 °F (1966)
Cooling Degree Days 12    
Growing Degree Days 26 (Base 50)    
Moisture  
Dew Point 70 °F    
Average Humidity 82    
Maximum Humidity 94    
Minimum Humidity 61    
Precipitation  
Precipitation 1.61 in - - ()
Sea Level Pressure  
Sea Level Pressure 29.94 in    
Wind  
Wind Speed 3 mph (North)    
Max Wind Speed 10 mph    
Max Gust Speed 21 mph    
Visibility 8 miles    
Events Rain , Thunderstorm    
Averages and records for this station are not official NWS values.
T = Trace of Precipitation, MM = Missing Value Source: NWS Daily Summary

Daily Weather History Graph

Daily Weather History Graph

Search for Another Location

Airport or City:

Trip Planner

Search our weather history database for the weather conditions in past years. The results will help you decide how hot, cold, wet, or windy it might be!

Date:

Astronomy

Jun. 02, 2013 Rise Set
Actual Time 6:05 AM CDT 8:09 PM CDT
Civil Twilight 5:37 AM CDT 8:37 PM CDT
Nautical Twilight 5:03 AM CDT 9:10 PM CDT
Astronomical Twilight 4:27 AM CDT 9:47 PM CDT
Moon 2:12 AM CDT (6/2) 2:58 PM CDT (6/2)
Length of Visible Light 14h 59m
Length of Day
14h 04m
Waning Crescent, 30% of the Moon is Illuminated
Jun 2
Waning Crescent
Jun 8
New
Jun 16
First Quarter
Jun 23
Full
Jun 29
Last Quarter

Hourly Weather History & Observations

Time (CDT) Temp. Heat Index Dew Point Humidity Pressure Visibility Wind Dir Wind Speed Gust Speed Precip Events Conditions
12:53 AM 75.9 °F - 73.0 °F 91% 29.92 in 10.0 mi South 3.5 mph - N/A   Scattered Clouds
1:53 AM 77.0 °F - 73.9 °F 90% 29.93 in 10.0 mi SW 4.6 mph - N/A   Scattered Clouds
2:53 AM 75.0 °F - 73.0 °F 94% 29.95 in 8.0 mi Calm Calm - N/A   Scattered Clouds
3:40 AM 75.2 °F - 73.4 °F 94% 29.95 in 9.0 mi North 3.5 mph - N/A   Mostly Cloudy
3:53 AM 75.9 °F - 73.9 °F 94% 29.95 in 10.0 mi Calm Calm - N/A   Overcast
4:31 AM 75.2 °F - 73.4 °F 94% 29.96 in 9.0 mi Calm Calm - N/A Thunderstorm Overcast
4:53 AM 75.0 °F - 72.0 °F 90% 29.96 in 10.0 mi NNE 8.1 mph - N/A Thunderstorm Thunderstorm
5:03 AM 71.6 °F - 68.0 °F 88% 30.01 in 2.5 mi NW 8.1 mph - 0.18 in Rain , Thunderstorm Heavy Thunderstorms and Rain
5:08 AM 71.6 °F - 68.0 °F 88% 30.02 in 0.8 mi North 9.2 mph - 0.62 in Rain , Thunderstorm Heavy Thunderstorms and Rain
5:22 AM 71.6 °F - 68.0 °F 88% 29.99 in 0.8 mi NE 9.2 mph 20.7 mph 1.42 in Rain , Thunderstorm Heavy Thunderstorms and Rain
5:28 AM 71.6 °F - 68.0 °F 88% 29.98 in 2.0 mi ENE 8.1 mph 16.1 mph 1.45 in Rain , Thunderstorm Heavy Thunderstorms and Rain
5:36 AM 71.6 °F - 68.0 °F 88% 29.97 in 5.0 mi ENE 8.1 mph - 1.47 in Rain , Thunderstorm Thunderstorms and Rain
5:53 AM 71.1 °F - 68.0 °F 90% 29.97 in 5.0 mi Calm Calm - 1.52 in Rain Rain
6:04 AM 71.6 °F - 68.0 °F 88% 29.98 in 6.0 mi Calm Calm - 0.03 in Rain , Thunderstorm Rain
6:28 AM 69.8 °F - 68.0 °F 94% 29.98 in 10.0 mi NE 4.6 mph - 0.06 in Rain Light Rain
6:53 AM 70.0 °F - 68.0 °F 93% 29.94 in 10.0 mi SE 10.4 mph - 0.09 in Rain Light Rain
7:53 AM 72.0 °F - 68.0 °F 87% 29.93 in 10.0 mi Variable 4.6 mph - 0.00 in   Scattered Clouds
8:53 AM 72.0 °F - 69.1 °F 91% 29.98 in 10.0 mi West 3.5 mph - N/A   Mostly Cloudy
9:10 AM 73.4 °F - 69.8 °F 88% 29.99 in 10.0 mi SSW 3.5 mph - N/A   Mostly Cloudy
9:53 AM 75.9 °F - 70.0 °F 82% 29.97 in 10.0 mi NNW 3.5 mph - N/A   Partly Cloudy
10:11 AM 77.0 °F - 69.8 °F 78% 29.97 in 10.0 mi WNW 3.5 mph - N/A   Mostly Cloudy
10:53 AM 77.0 °F - 70.0 °F 79% 29.96 in 10.0 mi NNW 4.6 mph - N/A   Overcast
11:10 AM 77.0 °F - 69.8 °F 78% 29.97 in 10.0 mi West 4.6 mph - N/A   Mostly Cloudy
11:53 AM 79.0 °F - 69.1 °F 72% 29.96 in 10.0 mi Variable 4.6 mph - N/A   Mostly Cloudy
12:38 PM 80.6 °F 83.9 °F 69.8 °F 70% 29.96 in 10.0 mi SSW 3.5 mph - N/A   Mostly Cloudy
12:53 PM 80.1 °F 82.9 °F 69.1 °F 69% 29.96 in 10.0 mi Calm Calm - N/A   Mostly Cloudy
1:53 PM 82.9 °F 87.0 °F 70.0 °F 65% 29.94 in 10.0 mi Calm Calm - N/A   Overcast
2:23 PM 84.2 °F 88.4 °F 69.8 °F 62% 29.93 in 10.0 mi Calm Calm - N/A   Overcast
2:53 PM 82.0 °F 85.5 °F 69.1 °F 65% 29.93 in 10.0 mi Variable 3.5 mph - N/A   Overcast
3:53 PM 84.0 °F 87.8 °F 69.1 °F 61% 29.93 in 10.0 mi Calm Calm - N/A   Scattered Clouds
4:53 PM 82.9 °F 86.5 °F 69.1 °F 63% 29.91 in 10.0 mi Calm Calm - N/A   Overcast
5:08 PM 82.4 °F 86.3 °F 69.8 °F 66% 29.90 in 10.0 mi ESE 3.5 mph - N/A   Scattered Clouds
5:26 PM 82.4 °F 86.3 °F 69.8 °F 66% 29.90 in 10.0 mi Calm Calm - N/A   Mostly Cloudy
5:45 PM 82.4 °F 86.3 °F 69.8 °F 66% 29.90 in 10.0 mi SE 3.5 mph - N/A   Scattered Clouds
5:53 PM 82.9 °F 87.0 °F 70.0 °F 65% 29.89 in 10.0 mi Calm Calm - N/A   Partly Cloudy
6:53 PM 80.1 °F 84.5 °F 73.9 °F 81% 29.89 in 10.0 mi Calm Calm - N/A   Partly Cloudy
7:53 PM 77.0 °F - 72.0 °F 84% 29.89 in 10.0 mi Calm Calm - N/A   Partly Cloudy
8:53 PM 75.9 °F - 71.1 °F 85% 29.89 in 10.0 mi NNW 3.5 mph - N/A   Partly Cloudy
9:53 PM 73.9 °F - 71.1 °F 91% 29.91 in 10.0 mi Calm Calm - N/A   Clear
10:53 PM 73.0 °F - 70.0 °F 90% 29.92 in 10.0 mi Calm Calm - N/A   Clear
11:41 PM 71.6 °F - 69.8 °F 94% 29.92 in 1.8 mi Calm Calm - N/A   Partly Cloudy
11:53 PM 71.1 °F - 69.1 °F 93% 29.92 in 1.2 mi Calm Calm - N/A   Partly Cloudy
11:56 PM 71.6 °F - 69.8 °F 94% 29.93 in 0.8 mi Calm Calm - N/A   Mist